RH
85 86 86 86 83 55 24 31 33 34 30 22 21 37 58 79 78 98 76 90 99 99 87 95 92 87 88 88 88 77 81 81 95 93 95 92 98 94 96 94 100 95 97 92 89 94 92 89 73 84 92 91 96 95
90 88 97 93 96 91 34 31 34 32 26 18 16 14 63 65 73 97 95 96 91 98 95 87 81 68 78 83 99 95 86 93 95 97 97 97 93 100 97 98 81 97 90 97 96 95 95 80 95 96 93 94 95 98
66 86 99 100 98 98 65 32 37 32 27 19 13 15 40 72 78 82 94 98 92 100 83 74 62 67 69 84 94 98 84 86 94 99 98 97 98 94 96 92 86 79 74 81 79 72 64 94 71 74 88 97 99 100
48 64 93 100 100 99 88 33 38 34 28 15 11 13 19 79 94 99 99 100 92 94 99 71 67 77 71 67 69 74 91 98 99 98 97 98 96 90 92 84 82 78 77 76 68 65 69 91 63 83 96 98 100 99
60 82 97 100 100 98 98 36 40 36 27 13 11 11 17 54 92 100 98 99 94 94 96 83 68 69 66 57 39 70 90 99 97 96 97 95 93 88 88 77 95 96 96 87 84 74 93 83 82 90 100 100 100 100
61 91 99 99 98 99 99 47 46 38 22 13 12 10 20 23 72 100 96 97 93 99 100 96 77 71 58 38 38 56 93 99 99 95 96 97 96 95 96 98 90 93 97 97 94 94 98 84 92 96 100 100 100 100
61 96 99 96 98 99 99 66 60 39 20 13 11 13 27 44 99 97 97 99 91 94 99 92 91 67 55 40 42 58 98 79 88 96 95 94 96 91 96 98 84 92 96 91 92 98 89 89 98 97 98 94 91 95
65 97 100 99 99 99 99 92 52 41 17 12 10 28 54 97 96 97 98 92 91 98 94 94 94 64 53 54 53 62 88 76 74 92 75 83 74 75 98 88 94 93 90 80 90 93 92 93 94 96 93 94 88 94
92 97 100 100 100 100 99 85 64 38 14 12 12 34 73 76 69 87 86 98 90 89 86 91 100 97 58 57 72 74 94 97 82 95 93 75 95 100 98 100 97 99 100 100 85 78 91 95 99 97 97 95 94 93
99 100 100 100 100 100 99 84 85 25 15 11 29 36 68 62 75 90 99 98 85 77 79 99 100 100 68 80 87 90 95 98 99 98 68 96 100 92 98 99 98 97 97 99 96 90 91 88 96 98 100 100 100 98
100 100 100 100 100 100 99 96 52 20 13 27 39 49 54 69 64 81 74 65 72 86 89 96 97 95 80 97 100 94 99 98 98 95 88 99 97 96 97 97 98 97 97 100 99 99 100 100 100 98 95 99 100 98
100 100 100 100 100 99 98 87 26 23 20 46 72 94 87 67 57 66 96 88 90 94 93 95 88 83 79 98 98 94 98 96 98 93 92 100 94 96 96 96 96 97 96 95 98 97 96 98 100 100 100 96 98 98
100 100 100 100 99 99 97 38 28 18 25 53 81 87 69 68 77 92 100 90 93 99 100 92 94 81 89 98 97 98 95 98 96 96 98 100 96 97 97 96 96 97 97 97 96 96 96 96 97 97 97 97 98 97
100 100 100 100 99 98 52 29 25 17 46 65 68 78 90 94 99 96 96 96 96 97 84 89 93 98 97 96 99 97 96 94 97 98 99 97 98 97 98 96 96 96 96 96 96 97 97 96 95 97 98 99 98 98
100 100 100 99 98 81 35 30 17 30 54 67 76 76 95 98 100 100 97 82 74 78 88 97 99 100 99 98 98 95 95 99 98 98 97 98 97 98 97 97 96 96 97 96 96 96 96 96 96 95 95 97 97 98
100 100 96 98 87 38 32 16 21 56 74 73 83 90 100 98 100 97 85 70 80 88 100 100 100 99 100 100 94 100 99 100 99 99 98 98 97 98 97 97 98 97 97 98 97 97 97 96 96 99 98 95 95 96
100 98 99 98 57 32 16 18 56 74 78 81 93 88 90 92 90 78 69 74 82 96 100 100 98 99 97 99 100 98 100 100 100 100 99 100 100 100 98 98 97 97 97 98 98 97 98 98 98 96 92 94 95 96
99 99 97 76 34 17 14 56 67 81 89 98 88 94 95 91 79 70 70 75 78 91 90 99 96 96 100 100 100 100 98 98 98 99 100 100 100 99 99 99 98 98 98 98 98 98 96 94 95 96 96 98 98 96
97 95 64 34 18 14 33 68 66 87 100 100 100 100 100 97 83 69 74 85 80 80 81 75 96 100 98 100 100 100 99 100 100 100 93 96 98 99 99 99 99 98 98 98 98 100 98 99 99 99 99 98 98 97
94 66 36 17 14 20 56 68 64 81 93 98 99 100 100 100 95 76 74 75 74 76 90 99 100 100 100 100 100 100 100 100 100 97 86 85 88 97 98 100 100 100 98 98 98 100 100 98 99 98 99 99 98 98
68 41 24 15 23 36 55 58 67 85 98 93 100 100 100 98 92 81 79 81 79 100 100 100 100 100 100 100 100 100 100 100 100 100 100 100 100 100 96 98 100 100 100 100 99 98 99 99 100 98 98 98 99 99
46 21 17 28 41 50 53 61 70 79 90 98 94 98 99 98 100 98 92 86 100 100 100 100 100 100 100 100 100 100 100 100 100 98 94 98 95 95 96 100 100 100 100 100 100 100 100 100 100 100 99 99 99 100
16 17 23 25 33 37 49 62 67 73 89 92 98 98 100 100 100 99 100 100 100 100 100 100 100 98 99 99 100 100 100 94 85 88 93 90 95 100 100 100 100 100 100 98 100 100 100 100 100 100 100 100 100 98
18 19 23 26 32 53 55 54 58 69 74 91 100 100 98 100 98 90 100 100 100 100 100 99 88 78 68 66 77 89 95 95 90 87 100 96 93 90 100 100 100 100 100 100 100 100 100 100 100 100 100 99 100 100
15 32 30 40 42 42 76 81 77 73 96 100 88 95 98 98 100 98 100 100 100 100 100 98 90 83 82 88 90 92 97 100 98 94 97 98 94 94 94 94 100 100 100 100 100 100 100 100 100 100 100 100 98 100
63 60 55 68 65 66 94 84 100 100 96 90 100 98 93 94 94 100 98 100 100 100 100 100 99 93 88 98 100 98 97 100 98 93 88 95 100 100 100 100 95 89 100 100 100 99 98 99 100 99 99 100 100 100
53 73 60 61 65 70 75 79 82 90 100 100 100 99 96 99 100 100 100 100 100 100 100 100 100 100 100 100 99 96 92 95 99 99 93 99 100 100 100 100 100 98 100 96 99 100 100 100 98 99 100 100 100 100
55 58 64 63 64 74 90 97 100 100 100 100 98 100 100 100 100 99 100 100 100 100 100 93 99 100 99 100 100 100 92 89 88 84 80 85 100 100 100 100 100 100 100 100 100 100 100 100 100 100 100 99 93 100
55 58 58 77 80 87 100 100 100 100 100 100 100 100 98 100 100 100 100 100 100 100 89 91 94 98 97 93 95 100 100 100 96 87 86 88 84 80 91 100 100 91 97 90 79 88 98 100 100 100 100 98 95 95
61 62 65 79 89 100 98 95 96 99 100 100 96 95 96 100 100 100 99 93 99 98 98 99 99 100 98 97 93 87 98 100 100 100 100 100 100 97 96 99 100 93 94 96 92 89 93 98 96 93 100 100 100 100
60 61 66 81 93 90 96 98 98 97 96 95 94 93 97 100 100 100 90 98 98 94 94 96 96 97 97 99 100 99 94 93 99 100 100 100 98 89 93 100 100 100 100 100 100 100 99 97 100 98 99 100 100 100
51 63 67 95 88 88 90 89 93 92 88 80 69 64 71 87 95 97 92 96 94 95 100 100 100 100 100 100 100 100 100 100 100 100 100 100 99 100 100 100 99 100 100 100 96 93 93 93 95 99 98 98 100 100
54 59 70 78 85 87 87 83 88 89 89 92 95 86 76 78 82 91 89 92 100 100 100 100 100 100 100 100 100 100 100 100 96 93 100 100 100 100 100 100 100 100 100 100 99 96 100 100 100 100 100 100 100 100
Wind_Speed
32 35 38 40 39 39 39 36 36 36 36 35 34 31 33 30 29 23 20 12 13 14 25 15 8 13 16 11 4 12 10 4 3 6 3 2 2 2 2 3 4 4 6 5 6 5 4 26 8 7 6 21 24 28
31 34 36 39 41 40 39 37 36 36 36 36 33 33 32 31 30 23 17 17 15 14 19 30 25 11 8 10 14 5 5 4 4 2 1 0 2 2 0 1 4 3 1 3 5 2 4 12 14 13 17 22 26 32
30 35 37 39 43 41 38 35 35 36 38 37 36 34 35 32 29 21 17 14 13 11 18 5 1 3 7 3 4 6 5 7 7 8 3 0 2 1 2 2 1 7 11 2 6 7 20 1 14 31 32 30 31 33
31 33 41 41 43 42 36 35 35 37 39 38 36 38 39 34 28 18 12 10 6 6 4 6 4 16 5 5 11 18 23 20 16 8 4 2 1 8 2 3 3 4 9 8 5 9 22 5 36 32 32 30 32 32
30 32 40 44 42 43 39 34 36 37 39 39 38 41 43 35 21 9 7 3 1 6 4 11 13 2 3 13 16 7 10 6 6 2 1 3 3 3 2 3 3 3 1 3 3 14 7 23 31 34 31 32 31 33
30 32 38 46 43 43 40 33 37 39 39 39 40 43 39 23 5 2 1 3 5 8 5 4 5 3 8 13 19 7 10 3 2 5 3 4 5 4 2 2 6 9 9 6 5 18 20 19 26 27 28 30 29 26
31 32 37 45 45 43 38 33 35 38 41 39 42 41 25 9 2 2 1 1 7 9 3 5 8 3 13 13 11 7 8 5 4 4 4 3 7 5 2 2 12 18 17 13 8 16 6 17 20 26 27 26 25 23
33 34 38 44 50 43 36 33 36 38 39 39 40 30 10 2 1 1 3 6 7 4 2 1 4 6 16 8 7 9 6 3 7 4 4 3 4 5 3 7 18 21 23 4 26 23 16 19 23 24 23 25 27 27
38 38 38 38 46 41 35 29 33 39 37 39 32 16 4 2 3 3 7 1 2 0 1 3 2 3 14 7 5 4 5 2 3 2 2 3 2 4 4 16 21 22 19 24 28 24 25 24 25 26 25 25 26 26
42 39 40 37 42 39 31 26 29 38 37 32 14 5 2 5 9 1 3 2 1 2 3 3 2 2 10 7 4 7 3 0 2 2 3 3 2 7 12 15 15 17 18 21 26 33 36 35 32 29 26 23 22 22
42 38 39 42 39 34 26 22 30 35 33 18 10 4 10 9 1 1 1 4 6 5 6 5 2 3 4 1 3 3 2 1 2 2 2 2 2 5 18 17 15 14 15 14 15 17 18 20 23 25 26 25 24 22
36 36 40 36 33 28 24 22 26 32 26 22 17 16 7 3 0 4 1 3 4 1 5 4 6 6 5 4 1 3 1 2 1 2 3 2 2 15 20 18 17 16 15 14 14 16 17 19 20 20 21 22 22 20
34 34 32 31 29 23 17 23 26 26 25 16 3 3 5 4 6 5 3 4 3 3 4 8 4 5 4 3 4 2 3 2 1 3 2 1 9 18 20 19 17 16 16 14 14 14 15 16 17 19 19 18 17 17
33 28 28 28 23 16 17 24 27 22 10 3 2 4 3 3 0 3 3 3 3 5 12 14 5 4 4 4 1 3 1 1 3 3 2 2 17 20 17 18 17 17 16 16 16 15 15 16 17 16 17 17 16 15
25 25 24 21 16 14 22 26 22 16 4 3 1 2 0 3 2 4 2 3 4 7 11 4 2 3 2 2 2 2 4 4 3 2 2 14 19 17 20 19 17 16 16 15 14 15 15 15 15 16 16 15 14 13
22 23 18 13 12 20 24 22 19 6 2 2 2 3 3 3 1 2 2 2 5 10 4 2 1 3 3 1 4 2 1 2 1 2 13 17 16 16 19 19 16 15 14 12 13 12 13 14 14 14 13 14 14 13
20 14 11 10 18 24 21 17 5 2 2 0 2 4 4 4 4 2 3 5 7 4 1 2 4 1 1 3 3 3 1 2 11 14 17 15 14 16 18 18 17 15 14 12 11 12 12 11 11 11 14 14 13 12
13 11 9 13 21 21 14 3 3 2 2 2 2 4 4 5 5 4 4 5 4 2 2 1 1 5 3 2 2 2 5 13 11 16 18 14 14 14 18 16 16 14 14 12 10 10 12 12 11 12 12 11 11 11
10 9 12 19 16 11 4 2 2 2 3 3 6 6 4 5 6 6 6 4 6 6 3 3 5 3 2 3 5 13 15 14 16 21 19 14 15 15 18 15 15 14 13 12 11 9 11 12 11 9 9 10 10 9
8 10 15 11 11 5 3 2 3 3 2 2 3 4 4 4 4 7 6 6 6 4 8 4 2 4 7 14 13 13 13 12 17 22 22 21 20 21 20 16 15 14 13 12 10 7 11 9 8 9 7 8 7 8
10 12 13 13 6 4 2 3 4 4 3 3 4 2 4 4 3 4 6 7 8 7 5 7 14 14 11 10 7 9 11 14 15 16 18 22 22 20 17 14 13 14 13 12 12 12 9 8 9 10 9 7 6 5
13 12 11 6 1 2 4 6 2 2 3 3 2 3 4 3 5 7 6 10 6 6 9 14 16 16 13 9 10 11 12 13 13 14 14 16 20 19 17 15 15 16 14 12 11 12 11 7 9 10 7 6 4 5
9 8 4 3 2 4 2 4 2 5 3 4 2 4 4 4 5 4 6 6 5 10 15 16 16 14 11 11 10 12 14 17 18 19 18 18 17 14 15 16 14 15 16 14 10 10 9 8 5 7 5 5 5 6
5 2 4 5 7 2 2 4 5 4 4 6 4 3 4 6 5 6 3 4 6 14 17 19 21 21 19 19 20 19 19 20 21 19 18 18 19 19 15 14 13 11 10 11 8 7 7 7 7 7 7 7 7 7
2 8 6 6 8 5 7 5 8 8 3 3 3 4 5 7 3 3 2 5 10 16 19 22 23 23 24 24 22 21 21 22 23 23 19 19 20 17 13 13 11 7 7 7 7 9 10 10 10 10 10 10 7 9
6 10 7 7 7 5 3 4 4 3 2 5 3 6 7 4 5 3 3 10 11 17 21 23 26 28 26 23 22 22 21 21 21 22 21 19 14 15 16 16 17 13 10 12 13 15 15 14 14 14 14 12 11 11
5 4 7 9 5 4 6 5 4 7 5 5 5 8 3 5 4 3 9 12 14 17 19 23 24 24 23 20 19 19 19 20 20 21 20 12 13 11 9 14 18 16 17 17 15 13 14 15 14 13 12 8 10 10
6 6 4 6 8 9 4 5 4 4 4 8 4 6 3 2 1 5 9 12 14 16 20 23 21 17 17 19 19 20 20 20 20 21 16 11 10 5 10 12 14 14 12 10 10 12 13 13 13 13 17 16 11 8
7 5 5 7 6 8 8 4 3 4 7 4 2 1 0 1 3 4 12 17 19 22 26 22 21 20 21 19 19 19 20 20 23 26 25 26 25 18 16 14 15 14 14 16 18 19 17 14 15 13 15 13 12 12
5 7 5 6 5 3 6 5 4 6 7 6 3 2 0 2 3 6 18 27 23 27 22 22 26 26 26 27 25 22 18 20 20 20 23 26 25 23 21 20 22 21 20 26 27 20 15 12 13 14 14 13 12 11
5 4 6 6 4 3 7 8 8 6 5 5 5 4 4 4 3 6 19 24 21 24 24 27 27 25 26 26 25 25 25 22 22 22 21 21 21 22 23 24 19 23 26 20 16 15 15 12 11 10 10 8 7 8
6 6 5 4 3 5 4 1 1 2 1 1 3 5 7 5 4 10 23 21 23 26 26 27 28 27 26 25 19 18 18 22 22 21 22 22 22 22 13 22 22 12 12 14 17 17 15 13 10 9 8 9 6 5
5 8 7 6 4 3 2 2 1 0 1 2 3 6 7 6 4 10 23 19 23 25 28 29 27 25 26 22 21 21 20 22 22 21 19 18 17 17 20 14 13 14 16 18 19 17 12 9 7 6 5 2 5 3
Wind_Direction
341 345 347 346 344 342 341 339 341 343 342 340 338 339 338 338 340 339 330 330 307 277 293 281 288 295 297 299 293 309 333 12 326 20 26 332 334 280 65 53 347 11 341 353 337 14 3 7 15 58 286 302 309 318
332 338 342 342 340 340 339 337 338 339 340 340 339 338 337 336 335 336 323 319 312 282 276 292 299 303 284 273 264 297 272 288 309 290 316 199 296 350 70 92 353 63 58 289 18 347 27 9 98 12 342 324 325 322
319 326 331 334 338 336 334 335 335 335 337 337 336 331 334 329 329 329 307 310 311 288 303 290 117 353 345 302 280 276 278 299 284 306 304 199 245 240 47 43 47 359 23 341 326 9 338 92 1 352 342 332 324 320
318 323 329 330 330 332 331 331 331 333 335 336 336 332 329 328 324 318 302 299 306 292 282 272 306 320 317 308 305 291 284 289 284 253 247 232 280 27 65 110 76 342 323 325 285 23 337 207 329 329 329 327 324 329
318 324 329 335 327 330 329 326 329 330 333 334 332 332 329 328 319 300 296 248 268 344 282 292 317 65 318 334 342 335 334 287 280 288 304 46 52 72 80 87 77 357 343 344 282 333 299 293 313 328 325 330 333 332
311 320 332 337 327 327 328 323 325 329 331 332 333 332 333 328 315 275 246 224 337 331 302 296 322 292 328 352 349 352 0 16 281 73 69 61 32 17 97 86 141 4 339 305 282 311 303 307 318 335 335 340 343 339
308 313 325 331 327 325 324 317 320 327 331 333 334 332 339 342 124 185 203 241 311 314 273 303 322 318 350 351 345 0 6 31 57 82 63 52 16 42 65 85 338 338 337 334 353 345 321 336 328 349 350 349 352 357
311 309 317 320 324 320 319 317 322 326 330 333 333 329 341 54 74 196 248 296 295 276 269 282 280 338 1 350 341 351 355 14 42 98 84 74 33 41 53 309 334 345 346 1 348 352 350 351 359 2 2 359 358 3
312 305 311 319 327 319 314 318 320 323 330 334 332 320 276 232 309 278 280 256 312 168 222 73 117 287 342 348 314 317 343 36 24 76 67 73 351 41 299 334 337 344 345 329 337 351 358 2 3 8 8 8 4 0
312 305 312 309 314 315 312 313 317 323 333 336 335 308 257 330 323 129 153 214 188 28 51 86 341 284 331 340 313 342 15 94 56 320 73 61 98 331 347 346 339 340 342 343 345 349 352 355 358 2 7 10 11 7
312 305 308 310 302 311 303 313 323 327 337 343 328 298 308 324 269 196 117 42 0 32 20 1 346 296 334 12 265 330 276 282 85 285 100 47 39 344 355 357 357 349 347 351 347 346 349 351 353 358 4 9 13 14
309 309 308 293 302 307 304 321 324 330 331 320 304 293 308 337 56 80 349 349 50 221 349 340 323 292 300 300 304 309 259 39 134 337 75 65 355 347 0 358 3 1 355 354 355 357 358 360 2 7 12 14 14 17
303 304 298 292 307 300 309 320 324 328 327 316 300 292 327 355 39 75 329 324 357 1 14 341 323 309 309 296 292 1 8 22 277 39 71 105 336 354 359 358 357 4 5 3 2 359 2 5 6 9 13 20 18 24
303 304 294 302 301 300 317 319 326 330 324 296 311 317 59 344 213 175 187 197 302 304 332 332 300 1 329 347 330 14 2 354 59 48 34 356 341 349 359 0 356 357 1 3 5 6 6 8 10 11 14 16 18 27
304 297 299 303 294 313 321 320 321 323 270 265 316 269 174 135 115 154 172 312 310 310 331 313 306 338 332 1 20 341 20 60 40 42 339 333 339 354 356 354 355 352 353 358 0 4 6 7 11 13 14 14 19 26
294 297 306 304 318 323 321 319 319 301 250 247 124 105 123 129 118 179 283 347 336 331 354 42 93 46 28 38 48 17 36 50 2 319 322 331 340 348 349 350 349 349 348 350 359 2 5 8 10 11 12 19 20 23
297 300 310 323 327 326 325 318 304 255 248 174 80 96 100 88 104 96 13 353 344 352 49 91 57 234 247 46 53 17 54 276 331 332 335 341 342 347 342 344 347 345 345 346 348 357 2 2 2 7 17 19 18 20
297 308 326 337 327 330 318 278 242 231 97 86 81 104 85 95 93 63 19 13 16 39 20 135 83 46 43 62 25 344 327 327 333 336 344 347 342 340 345 343 344 342 339 341 338 342 352 354 359 11 15 19 19 25
301 325 339 327 323 320 285 311 302 65 79 91 106 109 90 97 74 53 53 82 58 69 91 58 58 40 13 21 350 328 329 328 323 330 337 345 343 340 342 339 339 342 343 341 343 343 343 344 349 355 0 1 10 16
314 332 318 314 325 306 282 334 353 37 81 81 97 99 93 87 104 59 58 67 61 48 46 46 39 355 328 318 321 319 328 325 325 329 336 341 347 340 339 335 331 336 339 341 344 348 338 335 347 359 3 350 0 21
315 318 319 323 312 236 14 23 36 50 76 70 99 86 74 93 59 46 42 40 58 37 30 9 344 342 337 330 324 326 321 328 335 330 332 328 330 329 336 337 332 336 339 340 341 343 346 351 356 354 354 2 12 3
318 317 314 327 324 58 56 33 30 32 46 70 60 51 65 48 34 26 44 50 60 28 4 354 354 351 359 3 351 348 344 344 343 339 331 327 330 336 338 342 332 328 330 333 329 334 338 345 355 340 341 354 9 46
324 326 358 23 43 40 30 6 36 28 63 18 26 53 33 40 32 38 69 61 65 15 12 15 18 14 10 359 349 337 334 340 344 347 344 340 338 335 330 329 325 320 320 323 322 323 328 334 336 335 337 333 343 352
352 43 39 46 26 50 17 42 34 34 48 26 30 24 4 6 9 63 68 60 25 13 18 17 13 7 5 4 0 354 348 347 345 351 350 344 341 342 343 342 341 338 337 334 333 326 326 329 322 322 322 322 327 336
58 17 28 15 22 21 32 12 6 37 33 344 41 1 354 355 57 53 58 11 359 4 4 4 4 3 356 349 350 349 346 343 343 342 349 341 336 335 337 343 351 351 349 339 327 321 319 318 317 314 314 316 316 322
70 23 39 14 10 47 16 37 17 349 15 18 357 344 355 55 53 40 24 353 352 355 357 356 351 347 347 345 342 346 345 343 342 339 344 342 338 335 338 343 345 349 353 336 327 323 319 317 314 311 309 308 303 293
66 10 50 37 38 55 70 63 50 50 39 8 336 352 34 58 44 29 353 356 353 349 349 347 342 338 336 341 345 349 348 345 347 347 346 348 335 330 353 347 343 336 334 324 328 325 323 321 320 321 319 326 329 321
74 47 72 23 59 42 90 52 44 17 344 348 328 25 79 32 34 7 0 348 337 343 346 343 340 348 352 345 343 343 347 349 346 345 351 356 18 347 343 339 339 332 323 329 337 325 315 314 323 330 320 313 315 313
58 60 74 55 61 50 42 48 52 30 355 6 56 25 98 124 141 29 7 1 357 353 354 358 1 352 345 344 343 342 342 347 347 348 351 351 352 358 352 340 338 334 327 319 320 320 309 293 303 307 295 291 291 298
55 45 84 60 62 38 29 59 73 68 54 53 69 84 150 259 262 349 0 355 355 358 359 356 352 348 345 344 345 349 354 349 353 350 339 339 340 343 346 343 336 331 329 328 327 325 322 309 276 267 273 281 282 283
71 69 76 67 85 97 114 99 86 72 72 61 56 23 345 327 328 352 354 351 352 355 352 355 355 354 352 352 347 344 346 352 348 342 337 337 343 343 339 333 318 319 322 323 327 332 331 326 321 294 266 270 279 276
50 60 98 102 117 148 154 127 92 91 49 14 14 9 355 353 1 351 349 349 349 356 358 356 356 356 353 349 348 348 345 338 339 343 344 352 343 346 333 320 327 336 341 345 339 336 332 323 318 314 296 253 260 274
93 81 90 105 118 140 114 139 71 150 307 336 342 6 12 4 1 353 350 350 349 353 354 354 354 353 352 351 349 351 352 352 353 351 354 350 353 343 330 354 12 359 349 347 345 348 0 6 354 344 337 244 217 236